SCP
0 0 0 0 0 0 0 0 0 0 0 0 0 0 0 0 0 0 0 0 0 0 0 0 0 0 0 0 0 0 0 0 0 0 0 0 0 0 0 0 0 0 0
0 0 0 0 0 0 0 0 0 0 0 0 0 0 0 0 0 0 0 0 0 0 0 0 0 0 0 0 0 0 0 0 0 0 0 0 0 0 0 0 0 0 0
0 0 0 0 0 0 0 0 0 0 0 0 0 0 0 0 0 0 0 0 0 0 0 0 0 0 0 0 0 0 0 0 0 0 0 0 0 0 0 0 0 0 0
0 0 0 0 0 0 0 0 0 0 0 0 0 0 0 0 0 0 0 0 0 0 0 0 0 0 0 0 0 0 0 0 0 0 0 0 0 0 0 0 0 0 0
0 0 0 0 0 0 0 0 0 0 0 0 0 0 0 0 0 0 0 0 0 0 0 0 0 0 0 0 0 0 0 0 0 0 0 0 0 0 0 0 0 0 0
0 0 0 0 0 0 0 0 0 0 0 0 0 0 0 0 0 0 0 0 0 0 0 0 0 0 0 0 0 0 0 0 0 0 0 0 0 0 0 0 0 0 0
0 0 0 0 0 0 0 0 0 0 0 0 0 0 0 0 0 0 0 0 0 0 0 0 0 0 0 0 0 0 0 0 0 0 0 0 0 0 0 0 0 0 0
0 0 0 0 0 0 0 0 0 0 0 0 0 0 0 0 0 0 0 0 0 0 0 0 0 0 0 0 0 0 0 0 0 0 0 0 0 0 0 0 0 0 0
0 0 0 0 0 0 0 0 0 0 0 0 0 0 0 0 0 0 0 0 0 0 0 0 0 0 0 0 0 0 0 0 0 0 0 0 0 0 0 0 0 0 0
0 0 0 0 0 0 0 0 0 0 0 0 0 0 0 0 0 0 0 0 0 0 0 0 0 0 0 0 0 0 0 0 0 0 0 0 0 0 0 0 0 0 0
0 0 0 0 0 0 0 0 0 0 0 0 0 0 0 0 0 0 0 0 0 0 0 0 0 0 0 0 0 0 0 0 0 0 0 0 0 0 0 0 0 0 0
0 0 0 0 0 0 0 0 0 0 0 0 0 0 0 0 0 0 0 0 0 0 0 0 0 0 0 0 0 0 0 0 0 0 0 0 0 0 0 0 0 0 0
0 0 0 0 0 0 0 0 0 0 0 0 0 0 0 0 0 0 0 0 0 0 0 0 0 0 0 0 0 0 0 0 0 0 0 0 0 0 0 0 0 0 0
0 0 0 0 0 0 0 0 0 0 0 0 0 0 0 0 0 0 0 0 0 0 0 0 0 0 0 0 0 0 0 0 0 0 0 0 0 0 0 0 0 0 0
0 0 0 0 0 0 0 0 0 0 0 0 0 0 0 0 0 0 0 0 0 0 0 0 0 0 0 0 0 0 0 0 0 0 0 0 0 0 0 0 0 0 0
0 0 0 0 0 0 0 0 0 0 0 0 0 0 0 0 0 0 0 0 0 0 0 0 0 0 0 0 0 0 0 0 0 0 0 0 0 0 0 0 0 0 0
0 0 0 0 0 0 0 0 0 0 0 0 0 0 0 0 0 0 0 0 0 0 0 0 0 0 0 0 0 0 0 0 0 0 0 0 0 0 0 0 0 0 0
0 0 0 0 -0 -0 0 0 0 0 0 0 0 0 0 0 0 0 0 0 0 0 0 0 0 0 0 0 0 0 0 0 0 0 0 0 0 0 0 0 0 0 0
0 0 0 0 0 0 0 0 -0 0 0 0 0 0 0 0 0 0 0 0 0 0 0 0 0 0 0 0 0 0 0 0 0 0 0 0 0 0 0 0 0 0 0
0 0 0 0 0 0 0 0 0 0 0 0 0 0 0 0 0 0 0 0 0 0 0 0 0 0 0 0 0 0 0 0 0 0 0 0 0 0 0 0 0 0 0
-0 -0 -0 0 0 0 0 0 0 0 0 0 0 0 0 0 0 0 0 0 0 0 0 0 0 0 0 0 0 0 0 0 0 0 0 0 0 0 0 0 0 0 0
-0 -0 -0 -0 -0 -0 -0 0 0 0 0 0 0 0 0 0 0 0 0 0 0 0 0 0 0 0 0 0 0 0 0 0 0 0 0 0 0 0 0 0 0 0 0
0 0 -0 -0 -0 -0 -0 0 0 0 0 0 0 0 0 0 0 0 0 0 0 0 0 0 0 0 0 0 0 0 0 0 0 0 0 0 0 0 0 0 0 0 0
0 0 0 0 0 0 0 0 0 0 0 0 0 0 0 0 0 0 0 0 0 0 0 0 0 0 0 0 0 0 0 0 0 0 0 0 0 0 0 0 0 0 0
0 0 0 0 0 0 0 0 0 0 0 0 0 0 0 0 0 0 0 0 0 0 0 0 0 0 0 0 0 0 0 0 0 0 0 0 0 0 0 0 0 0 0
0 0 0 0 0 0 0 0 0 0 0 0 0 0 0 0 0 0 0 0 0 0 0 0 0 0 0 0 0 0 0 0 0 0 0 0 0 0 0 0 0 0 0
Wind_Speed_500mb
58 54 53 50 47 44 43 41 39 38 34 32 29 27 25 24 22 20 19 19 20 21 21 21 21 21 17 13 18 17 9 12 12 16 16 12 17 21 21 21 24 34 34
62 57 55 53 51 48 47 46 44 42 40 38 35 32 30 27 25 23 21 20 20 21 21 22 20 16 13 19 20 20 14 16 13 15 17 18 22 22 22 21 22 24 33
65 63 57 56 55 52 52 50 50 50 48 45 41 39 35 32 29 27 26 25 23 22 24 24 19 22 23 27 21 23 14 17 12 18 22 22 19 19 21 24 25 24 24
58 60 57 58 58 59 57 55 54 55 53 51 47 44 41 39 36 34 33 30 28 25 24 22 26 27 29 26 26 24 17 19 11 17 19 14 15 15 15 16 18 19 21
51 53 57 58 61 64 63 60 59 57 58 56 53 51 48 47 44 42 41 39 33 30 27 28 30 30 30 30 30 28 23 24 20 20 20 19 18 19 18 19 20 19 20
55 55 57 58 61 66 68 67 63 62 61 57 56 56 55 54 54 51 48 44 40 35 33 33 34 37 38 36 34 32 32 33 30 25 23 23 24 24 23 24 25 24 24
51 53 54 55 60 66 68 67 66 65 64 61 61 60 62 62 61 59 56 51 48 44 40 39 40 41 42 41 40 39 41 40 33 24 23 24 24 25 24 24 24 23 24
44 49 51 54 56 62 66 67 68 70 69 69 69 64 50 65 68 66 63 59 55 52 48 46 46 45 45 45 47 47 46 45 28 25 25 26 26 25 24 22 21 21 21
41 43 46 49 53 58 65 65 68 72 74 76 77 62 27 40 48 64 73 68 63 59 56 53 51 51 49 49 50 51 52 47 36 32 29 28 27 26 23 23 22 21 21
34 40 42 46 51 55 60 62 64 69 74 79 80 83 80 54 31 27 48 62 67 66 63 61 58 55 54 54 55 50 50 45 40 37 34 31 30 27 27 26 25 24 23
23 30 37 42 46 51 56 59 63 68 74 79 87 88 87 87 70 61 54 52 59 59 63 64 61 59 57 60 59 55 53 48 43 40 38 35 32 31 30 29 28 27 25
15 15 18 27 38 47 51 55 59 64 68 76 82 87 93 90 91 84 83 79 74 69 67 63 63 62 62 64 63 59 55 52 49 46 43 40 37 35 32 31 30 29 28
25 25 24 22 20 24 35 48 55 60 64 70 74 83 86 92 93 88 86 86 78 71 73 71 67 67 66 65 66 63 59 57 53 51 49 47 43 40 38 36 34 32 31
26 26 30 36 37 32 28 32 43 54 61 67 72 75 81 84 86 92 98 88 84 78 75 79 75 73 71 69 68 68 65 62 58 55 55 53 49 46 43 40 38 37 36
30 31 29 27 29 34 37 39 40 43 51 61 70 73 75 80 86 89 91 97 96 84 87 85 83 84 77 74 72 74 73 66 66 62 61 59 56 51 48 47 46 44 43
37 37 38 37 34 31 30 33 38 43 49 54 63 68 73 74 78 82 91 94 97 102 97 86 82 79 79 78 74 74 73 73 72 70 67 66 63 58 55 53 50 47 46
42 47 50 50 47 44 39 35 36 39 46 52 54 59 68 69 75 77 81 88 99 101 111 99 98 91 85 82 77 75 75 76 78 77 74 72 70 65 62 59 55 54 51
42 45 48 51 57 58 54 46 39 37 43 49 50 52 62 64 73 76 77 83 87 92 102 106 98 102 105 102 94 87 81 80 81 81 81 79 78 73 68 67 64 59 55
60 58 56 56 57 60 66 66 60 52 47 48 50 54 59 60 69 75 80 82 84 86 91 98 100 96 100 99 99 94 91 88 85 83 86 87 85 79 76 73 70 64 58
72 71 72 71 69 68 68 70 73 70 67 61 57 55 57 61 66 69 75 81 81 85 87 91 97 100 105 110 106 103 104 99 93 91 94 94 91 88 84 82 77 72 64
78 80 82 82 83 83 81 80 80 76 75 76 75 71 64 61 63 65 69 76 79 84 87 94 96 93 104 109 118 115 110 103 102 100 99 101 101 99 96 91 86 79 71
92 95 98 101 103 102 99 96 95 91 90 87 85 85 83 75 68 66 66 69 76 84 89 91 96 98 106 106 112 120 114 113 110 114 109 108 106 109 106 101 92 84 77
104 109 113 115 117 116 113 111 109 102 99 98 99 98 95 91 84 77 71 70 70 76 90 94 97 107 90 90 98 109 120 123 128 119 108 115 116 119 110 106 98 89 83
108 111 115 117 121 125 124 119 91 80 93 105 107 107 107 106 99 92 84 80 80 77 80 85 107 112 103 91 92 96 103 109 121 121 111 112 119 120 116 113 102 97 92
106 109 111 113 107 123 117 95 85 87 95 108 112 113 112 116 117 105 95 94 90 89 84 80 82 93 110 92 94 87 92 100 107 119 118 110 114 105 115 116 108 104 97
102 103 109 107 108 114 111 93 87 90 97 100 111 115 111 102 105 92 87 99 100 100 90 86 84 84 83 111 98 101 103 108 109 83 115 115 107 99 88 107 113 106 100
Wind_Direction_500mb
245 240 242 243 241 239 236 235 233 234 235 237 237 238 241 244 250 253 258 260 265 268 267 265 263 260 248 213 221 207 220 222 216 224 233 234 221 225 222 219 216 219 225
248 247 243 244 242 241 239 237 236 235 234 235 237 239 241 245 250 254 259 260 258 257 254 254 254 243 203 209 219 237 246 245 236 235 240 236 231 228 218 206 204 204 210
253 248 247 248 246 243 241 239 236 234 233 234 237 238 241 244 249 255 258 261 262 256 252 243 225 196 194 194 218 239 222 240 228 224 229 238 252 242 227 218 212 210 211
255 247 250 251 250 246 244 242 240 237 237 238 240 242 244 246 248 252 255 256 257 259 259 250 229 202 211 228 215 224 254 244 229 222 234 241 243 245 238 235 233 229 225
256 256 257 256 255 250 247 246 244 242 241 239 239 240 242 244 246 247 250 255 257 257 254 248 234 240 248 237 215 231 242 261 251 245 241 239 240 234 230 232 232 231 231
256 259 260 258 256 254 252 250 248 246 244 241 240 240 242 243 244 245 247 250 255 255 254 250 244 240 238 240 240 247 251 268 266 266 263 259 255 251 242 235 234 233 234
250 260 261 260 259 257 255 255 253 249 244 237 237 238 239 240 242 243 245 247 250 253 248 249 248 246 246 247 244 247 256 266 270 264 259 259 258 258 257 257 255 250 246
253 256 262 263 261 259 256 255 253 251 246 240 235 238 243 247 247 244 244 245 246 248 250 247 246 245 246 248 247 246 247 260 268 262 259 257 254 253 253 252 253 255 254
258 259 255 259 263 262 260 257 255 254 250 244 241 234 233 241 253 249 246 244 244 245 247 248 249 248 246 248 247 244 246 258 264 262 258 252 248 247 248 250 250 250 251
261 261 260 259 266 266 262 261 260 255 252 248 247 244 238 252 253 255 250 247 246 246 247 247 247 248 247 248 248 247 251 256 256 257 255 250 247 246 247 248 249 248 249
264 261 261 259 258 258 263 263 261 257 255 253 251 251 250 246 251 253 260 253 249 251 248 246 248 248 246 248 246 246 249 252 254 255 253 249 247 249 250 251 251 252 254
268 269 274 268 260 257 258 260 263 263 261 259 258 255 254 252 250 251 256 259 259 260 256 252 250 248 245 246 246 246 248 248 251 251 249 245 244 245 247 250 253 256 259
298 298 287 271 269 272 263 259 259 260 262 263 261 261 260 258 255 258 260 260 264 260 258 255 252 251 249 248 248 247 246 246 248 251 250 246 243 242 241 242 245 250 255
341 319 299 293 291 282 272 270 263 259 260 262 263 262 263 262 261 258 258 261 263 261 256 256 258 255 253 252 252 251 247 243 244 245 247 246 243 241 239 240 244 249 254
351 345 339 332 311 298 290 279 269 267 266 263 262 263 261 262 262 261 259 259 258 261 261 258 256 263 261 255 254 252 251 246 244 242 242 241 239 240 239 240 242 246 250
346 346 346 341 332 320 309 299 291 279 269 267 265 263 264 263 262 260 260 260 258 258 261 261 261 262 264 263 257 254 254 248 245 242 240 240 238 237 238 240 244 248 251
330 332 334 336 334 329 322 314 307 299 287 278 271 267 267 267 266 264 261 257 258 257 258 260 261 260 258 256 253 253 253 250 244 241 240 239 238 237 237 240 243 247 251
322 320 318 316 320 322 321 317 311 305 303 297 294 285 275 270 269 268 264 264 259 256 259 260 259 258 259 258 256 252 252 251 247 241 240 238 237 236 237 238 241 243 247
320 316 311 308 307 307 309 310 310 310 306 302 300 296 290 283 276 270 268 264 263 262 259 259 258 258 256 255 251 247 244 245 245 244 241 238 236 235 237 239 241 242 243
316 314 311 308 306 303 301 300 300 302 302 301 298 292 290 289 283 279 274 268 266 264 263 260 258 255 256 254 251 246 242 241 241 240 239 239 236 234 235 236 238 240 241
311 310 307 305 303 301 300 300 297 296 294 292 291 291 289 286 285 284 277 271 268 265 261 261 258 251 250 247 245 244 241 242 242 241 239 237 236 234 233 234 236 238 240
307 304 302 301 298 298 298 297 297 296 294 292 287 285 285 284 282 282 280 277 267 261 261 258 256 250 251 249 247 245 244 236 235 237 236 238 237 236 235 234 234 236 237
301 300 299 298 297 296 295 294 293 291 288 286 286 284 282 281 280 279 279 278 273 265 254 254 254 252 248 246 247 244 243 245 245 245 240 239 237 237 236 235 234 234 235
299 297 295 294 294 292 292 293 293 289 285 283 281 280 280 278 276 277 279 278 275 272 265 257 247 252 253 249 249 252 256 257 251 246 243 239 242 240 237 234 233 232 233
298 296 294 292 289 288 288 290 292 291 287 285 283 279 276 276 276 274 274 275 275 274 272 267 260 257 248 247 248 249 242 239 239 240 237 237 238 237 235 233 230 231 230
301 299 295 294 292 291 290 290 290 288 287 285 283 281 278 273 273 269 264 268 270 271 274 274 269 261 254 248 235 243 245 238 237 240 240 233 232 233 227 230 227 226 226
Wind_Speed_850mb
58 54 53 50 47 44 43 41 39 38 34 32 29 27 25 24 22 20 19 19 20 21 21 21 21 21 17 13 18 17 9 12 12 16 16 12 17 21 21 21 24 34 34
62 57 55 53 51 48 47 46 44 42 40 38 35 32 30 27 25 23 21 20 20 21 21 22 20 16 13 19 20 20 14 16 13 15 17 18 22 22 22 21 22 24 33
65 63 57 56 55 52 52 50 50 50 48 45 41 39 35 32 29 27 26 25 23 22 24 24 19 22 23 27 21 23 14 17 12 18 22 22 19 19 21 24 25 24 24
58 60 57 58 58 59 57 55 54 55 53 51 47 44 41 39 36 34 33 30 28 25 24 22 26 27 29 26 26 24 17 19 11 17 19 14 15 15 15 16 18 19 21
51 53 57 58 61 64 63 60 59 57 58 56 53 51 48 47 44 42 41 39 33 30 27 28 30 30 30 30 30 28 23 24 20 20 20 19 18 19 18 19 20 19 20
55 55 57 58 61 66 68 67 63 62 61 57 56 56 55 54 54 51 48 44 40 35 33 33 34 37 38 36 34 32 32 33 30 25 23 23 24 24 23 24 25 24 24
51 53 54 55 60 66 68 67 66 65 64 61 61 60 62 62 61 59 56 51 48 44 40 39 40 41 42 41 40 39 41 40 33 24 23 24 24 25 24 24 24 23 24
44 49 51 54 56 62 66 67 68 70 69 69 69 64 50 65 68 66 63 59 55 52 48 46 46 45 45 45 47 47 46 45 28 25 25 26 26 25 24 22 21 21 21
41 43 46 49 53 58 65 65 68 72 74 76 77 62 27 40 48 64 73 68 63 59 56 53 51 51 49 49 50 51 52 47 36 32 29 28 27 26 23 23 22 21 21
34 40 42 46 51 55 60 62 64 69 74 79 80 83 80 54 31 27 48 62 67 66 63 61 58 55 54 54 55 50 50 45 40 37 34 31 30 27 27 26 25 24 23
23 30 37 42 46 51 56 59 63 68 74 79 87 88 87 87 70 61 54 52 59 59 63 64 61 59 57 60 59 55 53 48 43 40 38 35 32 31 30 29 28 27 25
15 15 18 27 38 47 51 55 59 64 68 76 82 87 93 90 91 84 83 79 74 69 67 63 63 62 62 64 63 59 55 52 49 46 43 40 37 35 32 31 30 29 28
25 25 24 22 20 24 35 48 55 60 64 70 74 83 86 92 93 88 86 86 78 71 73 71 67 67 66 65 66 63 59 57 53 51 49 47 43 40 38 36 34 32 31
26 26 30 36 37 32 28 32 43 54 61 67 72 75 81 84 86 92 98 88 84 78 75 79 75 73 71 69 68 68 65 62 58 55 55 53 49 46 43 40 38 37 36
30 31 29 27 29 34 37 39 40 43 51 61 70 73 75 80 86 89 91 97 96 84 87 85 83 84 77 74 72 74 73 66 66 62 61 59 56 51 48 47 46 44 43
37 37 38 37 34 31 30 33 38 43 49 54 63 68 73 74 78 82 91 94 97 102 97 86 82 79 79 78 74 74 73 73 72 70 67 66 63 58 55 53 50 47 46
42 47 50 50 47 44 39 35 36 39 46 52 54 59 68 69 75 77 81 88 99 101 111 99 98 91 85 82 77 75 75 76 78 77 74 72 70 65 62 59 55 54 51
42 45 48 51 57 58 54 46 39 37 43 49 50 52 62 64 73 76 77 83 87 92 102 106 98 102 105 102 94 87 81 80 81 81 81 79 78 73 68 67 64 59 55
60 58 56 56 57 60 66 66 60 52 47 48 50 54 59 60 69 75 80 82 84 86 91 98 100 96 100 99 99 94 91 88 85 83 86 87 85 79 76 73 70 64 58
72 71 72 71 69 68 68 70 73 70 67 61 57 55 57 61 66 69 75 81 81 85 87 91 97 100 105 110 106 103 104 99 93 91 94 94 91 88 84 82 77 72 64
78 80 82 82 83 83 81 80 80 76 75 76 75 71 64 61 63 65 69 76 79 84 87 94 96 93 104 109 118 115 110 103 102 100 99 101 101 99 96 91 86 79 71
92 95 98 101 103 102 99 96 95 91 90 87 85 85 83 75 68 66 66 69 76 84 89 91 96 98 106 106 112 120 114 113 110 114 109 108 106 109 106 101 92 84 77
104 109 113 115 117 116 113 111 109 102 99 98 99 98 95 91 84 77 71 70 70 76 90 94 97 107 90 90 98 109 120 123 128 119 108 115 116 119 110 106 98 89 83
108 111 115 117 121 125 124 119 91 80 93 105 107 107 107 106 99 92 84 80 80 77 80 85 107 112 103 91 92 96 103 109 121 121 111 112 119 120 116 113 102 97 92
106 109 111 113 107 123 117 95 85 87 95 108 112 113 112 116 117 105 95 94 90 89 84 80 82 93 110 92 94 87 92 100 107 119 118 110 114 105 115 116 108 104 97
102 103 109 107 108 114 111 93 87 90 97 100 111 115 111 102 105 92 87 99 100 100 90 86 84 84 83 111 98 101 103 108 109 83 115 115 107 99 88 107 113 106 100
Wind_Direction_850mb
245 240 242 243 241 239 236 235 233 234 235 237 237 238 241 244 250 253 258 260 265 268 267 265 263 260 248 213 221 207 220 222 216 224 233 234 221 225 222 219 216 219 225
248 247 243 244 242 241 239 237 236 235 234 235 237 239 241 245 250 254 259 260 258 257 254 254 254 243 203 209 219 237 246 245 236 235 240 236 231 228 218 206 204 204 210
253 248 247 248 246 243 241 239 236 234 233 234 237 238 241 244 249 255 258 261 262 256 252 243 225 196 194 194 218 239 222 240 228 224 229 238 252 242 227 218 212 210 211
255 247 250 251 250 246 244 242 240 237 237 238 240 242 244 246 248 252 255 256 257 259 259 250 229 202 211 228 215 224 254 244 229 222 234 241 243 245 238 235 233 229 225
256 256 257 256 255 250 247 246 244 242 241 239 239 240 242 244 246 247 250 255 257 257 254 248 234 240 248 237 215 231 242 261 251 245 241 239 240 234 230 232 232 231 231
256 259 260 258 256 254 252 250 248 246 244 241 240 240 242 243 244 245 247 250 255 255 254 250 244 240 238 240 240 247 251 268 266 266 263 259 255 251 242 235 234 233 234
250 260 261 260 259 257 255 255 253 249 244 237 237 238 239 240 242 243 245 247 250 253 248 249 248 246 246 247 244 247 256 266 270 264 259 259 258 258 257 257 255 250 246
253 256 262 263 261 259 256 255 253 251 246 240 235 238 243 247 247 244 244 245 246 248 250 247 246 245 246 248 247 246 247 260 268 262 259 257 254 253 253 252 253 255 254
258 259 255 259 263 262 260 257 255 254 250 244 241 234 233 241 253 249 246 244 244 245 247 248 249 248 246 248 247 244 246 258 264 262 258 252 248 247 248 250 250 250 251
261 261 260 259 266 266 262 261 260 255 252 248 247 244 238 252 253 255 250 247 246 246 247 247 247 248 247 248 248 247 251 256 256 257 255 250 247 246 247 248 249 248 249
264 261 261 259 258 258 263 263 261 257 255 253 251 251 250 246 251 253 260 253 249 251 248 246 248 248 246 248 246 246 249 252 254 255 253 249 247 249 250 251 251 252 254
268 269 274 268 260 257 258 260 263 263 261 259 258 255 254 252 250 251 256 259 259 260 256 252 250 248 245 246 246 246 248 248 251 251 249 245 244 245 247 250 253 256 259
298 298 287 271 269 272 263 259 259 260 262 263 261 261 260 258 255 258 260 260 264 260 258 255 252 251 249 248 248 247 246 246 248 251 250 246 243 242 241 242 245 250 255
341 319 299 293 291 282 272 270 263 259 260 262 263 262 263 262 261 258 258 261 263 261 256 256 258 255 253 252 252 251 247 243 244 245 247 246 243 241 239 240 244 249 254
351 345 339 332 311 298 290 279 269 267 266 263 262 263 261 262 262 261 259 259 258 261 261 258 256 263 261 255 254 252 251 246 244 242 242 241 239 240 239 240 242 246 250
346 346 346 341 332 320 309 299 291 279 269 267 265 263 264 263 262 260 260 260 258 258 261 261 261 262 264 263 257 254 254 248 245 242 240 240 238 237 238 240 244 248 251
330 332 334 336 334 329 322 314 307 299 287 278 271 267 267 267 266 264 261 257 258 257 258 260 261 260 258 256 253 253 253 250 244 241 240 239 238 237 237 240 243 247 251
322 320 318 316 320 322 321 317 311 305 303 297 294 285 275 270 269 268 264 264 259 256 259 260 259 258 259 258 256 252 252 251 247 241 240 238 237 236 237 238 241 243 247
320 316 311 308 307 307 309 310 310 310 306 302 300 296 290 283 276 270 268 264 263 262 259 259 258 258 256 255 251 247 244 245 245 244 241 238 236 235 237 239 241 242 243
316 314 311 308 306 303 301 300 300 302 302 301 298 292 290 289 283 279 274 268 266 264 263 260 258 255 256 254 251 246 242 241 241 240 239 239 236 234 235 236 238 240 241
311 310 307 305 303 301 300 300 297 296 294 292 291 291 289 286 285 284 277 271 268 265 261 261 258 251 250 247 245 244 241 242 242 241 239 237 236 234 233 234 236 238 240
307 304 302 301 298 298 298 297 297 296 294 292 287 285 285 284 282 282 280 277 267 261 261 258 256 250 251 249 247 245 244 236 235 237 236 238 237 236 235 234 234 236 237
301 300 299 298 297 296 295 294 293 291 288 286 286 284 282 281 280 279 279 278 273 265 254 254 254 252 248 246 247 244 243 245 245 245 240 239 237 237 236 235 234 234 235
299 297 295 294 294 292 292 293 293 289 285 283 281 280 280 278 276 277 279 278 275 272 265 257 247 252 253 249 249 252 256 257 251 246 243 239 242 240 237 234 233 232 233
298 296 294 292 289 288 288 290 292 291 287 285 283 279 276 276 276 274 274 275 275 274 272 267 260 257 248 247 248 249 242 239 239 240 237 237 238 237 235 233 230 231 230
301 299 295 294 292 291 290 290 290 288 287 285 283 281 278 273 273 269 264 268 270 271 274 274 269 261 254 248 235 243 245 238 237 240 240 233 232 233 227 230 227 226 226